PROFILE

 METAR AND TAF INFORMATION
ADDS - METARS form results

(1150 UTC 26 September 2021)
http://aviationweather.gov/metar/data/
 
LFMN 261130Z 33004KT 300V010 9999 -TSRA FEW021 FEW033CB BKN046 25/19 Q1017 NOSIG
LFMN 261100Z 34004KT 320V020 9999 FEW021 FEW033CB BKN046 25/18 Q1017 RETSRA NOSIG
TAF LFMN 260800Z 2609/2715 36005KT 9999 FEW050CB BKN060 TEMPO 2609/2614 VRB15G30KT 2000 TSRA SCT014 BKN035CB BECMG 2614/2616 24010KT BECMG 2619/2621 34010KT PROB30 TEMPO 2622/2707 BKN014 BECMG 2709/2711 25010KT 

 AIRPORT MAP

 RUNWAY INFORMATION
Runway 04L Runway length 8995 ft Runway width 148 ft
Runway elevation 10 ft Runway displaced threshold 0 ft Runway heading 45
Runway 22R Runway length 8995 ft Runway width 148 ft
Runway elevation 10 ft Runway displaced threshold 575 ft Runway heading 225
Runway 04R Runway length 9712 ft Runway width 148 ft
Runway elevation 10 ft Runway displaced threshold 0 ft Runway heading 45
Runway 22L Runway length 9712 ft Runway width 148 ft
Runway elevation 12 ft Runway displaced threshold 0 ft Runway heading 225

 AIRPORT FREQUENCIES
Type A/D Name NICE APP Frequency 124.175 MHZ
Type ATIS Name NICE ATIS Frequency 129.6 MHZ
Type GND Name NICE GND Frequency 121.775 MHZ
Type TWR Name NICE TWR Frequency 118.7 MHZ

 AIRPORT NEAR NAVIGATION AIDS
Type VOR-DME Name Nice Cote D Azur Frequency 109650 KHZ
Type VOR-DME Name Cagnes Sur Mer Frequency 109200 KHZ
Type NDB Name Nice Frequency 399 KHZ
Type VOR-DME Name Nice Frequency 112400 KHZ